Wind_Speed
23 20 18 17 16 15 15 14 13 14 14 14 15 16 17 18 18 19 19 19 19 19 19 18 17 17 18 18 18 19 20 20 20 20 20 22 23 24 25 26 27 27
22 20 19 17 16 15 14 13 12 13 13 14 15 16 16 17 17 17 18 18 18 18 17 16 17 17 18 19 19 19 20 21 21 20 20 22 23 24 26 27 28 29
21 20 19 17 16 14 12 12 12 13 13 14 14 15 15 16 17 16 16 16 16 16 15 16 16 17 18 19 19 20 21 22 22 21 22 23 23 24 26 26 28 29
21 20 18 16 14 12 11 11 11 12 13 13 14 14 15 15 15 14 14 14 14 14 15 15 16 17 17 18 19 21 22 23 23 22 24 24 24 25 26 26 28 30
21 19 17 14 11 10 10 10 11 11 12 13 13 13 13 12 12 12 12 12 13 14 14 14 15 16 17 18 19 21 22 23 22 22 24 25 25 25 26 26 29 31
20 17 14 12 10 9 9 10 11 12 12 13 13 13 12 11 12 12 12 12 13 13 13 13 14 15 16 16 18 20 22 23 23 23 25 27 26 26 26 27 30 31
18 16 13 10 9 9 9 10 11 12 12 13 13 13 12 12 13 12 12 13 12 12 12 14 15 15 16 16 17 19 21 23 24 24 26 27 27 28 28 29 31 31
17 15 12 10 9 9 9 10 10 11 12 13 13 12 11 12 13 12 12 12 11 12 13 14 15 16 17 17 17 19 21 22 22 23 25 27 28 30 30 29 29 29
17 14 12 10 9 9 9 9 10 11 12 12 12 11 11 11 12 12 11 11 11 12 13 14 15 15 16 16 16 19 21 22 22 23 25 28 29 30 30 30 29 30
17 14 12 11 9 9 8 9 10 11 11 10 11 11 11 11 11 12 12 12 13 13 13 14 15 15 15 16 16 18 20 22 22 23 25 27 28 30 30 30 30 32
17 15 13 11 9 8 8 9 9 10 10 10 10 11 12 12 13 14 13 13 13 13 14 14 15 16 16 17 17 18 20 22 22 23 25 26 27 29 29 29 30 32
18 15 13 10 9 8 8 8 9 9 10 10 11 12 13 14 15 15 14 13 14 14 14 15 15 16 17 17 18 19 20 21 22 23 25 26 28 29 29 30 30 31
18 16 13 11 9 8 8 8 9 9 11 11 12 12 13 14 15 16 15 14 14 15 15 15 15 15 17 18 18 20 21 22 23 24 26 27 29 30 31 32 33 33
18 16 13 11 9 8 8 8 8 9 10 11 11 12 13 14 15 15 15 14 14 15 15 15 15 16 16 17 18 19 20 22 23 25 27 28 29 30 32 33 34 35
18 16 13 11 10 8 7 8 8 8 9 9 10 11 12 14 14 14 14 14 14 14 14 14 15 15 15 16 17 19 20 22 24 24 26 27 28 29 30 31 31 33
18 16 14 11 9 8 7 7 7 7 7 8 9 10 12 13 13 13 12 13 13 14 14 14 14 16 16 17 20 22 24 25 26 27 26 28 30 32 33 33 33 33
18 16 13 11 10 8 8 7 6 6 5 7 8 10 11 12 12 11 11 12 13 13 14 15 16 17 18 20 23 24 26 27 28 29 27 27 30 33 35 35 35 35
18 16 13 11 10 9 8 6 5 4 4 6 7 9 10 10 10 10 11 12 12 14 16 16 18 20 20 22 24 25 26 27 29 29 27 27 29 33 35 35 35 35
18 16 13 12 10 9 7 5 4 3 3 5 6 7 8 9 10 10 11 12 12 14 16 17 20 22 22 23 25 26 27 28 29 28 27 28 31 33 34 35 34 35
18 16 14 12 10 8 6 4 2 2 3 4 5 6 7 9 10 10 11 13 14 15 17 19 22 23 23 25 26 27 28 28 28 27 26 29 32 33 33 34 34 35
18 16 14 12 10 8 6 3 2 2 3 4 5 6 7 8 10 11 13 15 17 18 19 21 24 24 24 26 27 27 29 28 26 25 25 28 31 32 33 34 34 35
19 17 15 12 10 8 5 3 1 1 2 3 5 6 8 9 10 12 14 16 19 20 21 24 27 25 24 26 27 28 29 26 23 23 25 27 29 32 33 35 35 34
19 17 15 13 10 8 5 2 1 1 2 3 5 7 8 10 11 13 15 17 20 22 23 25 26 25 25 26 27 28 29 25 23 25 27 28 30 32 33 35 35 34
20 17 15 13 10 7 4 2 1 1 2 3 5 7 9 11 12 14 16 18 20 24 24 23 25 25 26 27 27 29 28 26 25 27 29 30 31 33 34 34 35 36
19 16 14 12 9 6 4 2 0 1 2 3 5 7 9 11 12 14 18 21 22 24 23 21 23 25 25 26 28 29 29 27 26 27 27 28 30 32 34 34 34 36
18 16 13 11 8 6 3 1 1 2 3 4 5 7 9 11 12 15 20 21 20 19 19 20 22 25 26 27 28 30 30 30 30 28 25 23 25 28 32 33 35 35
Wind_Direction
213 214 216 220 226 232 239 247 255 263 272 275 277 282 287 294 300 304 305 305 305 305 301 296 287 280 275 273 271 269 270 268 266 265 263 261 259 259 258 257 255 255
210 212 214 217 223 231 241 249 257 264 273 278 280 282 285 294 301 302 303 303 302 301 296 289 283 279 277 275 273 272 271 269 266 265 263 260 260 259 258 256 256 255
207 210 212 215 221 231 242 251 260 269 277 282 283 283 285 294 299 298 298 297 295 293 289 286 283 280 277 275 275 273 271 270 268 267 264 261 261 260 258 257 256 255
203 207 210 214 221 232 243 254 265 271 278 282 283 284 287 293 295 293 293 293 292 290 288 286 283 281 278 276 275 273 270 270 269 267 265 263 261 260 259 259 257 255
200 203 208 213 222 236 248 261 271 274 278 281 282 285 286 287 287 286 288 290 291 291 288 285 283 280 279 276 274 272 271 270 269 267 265 264 263 262 260 260 259 256
198 201 206 214 224 241 256 267 275 278 282 282 283 286 286 285 287 288 289 290 290 289 286 283 281 280 278 276 274 273 271 271 271 268 267 267 266 265 263 262 261 258
197 201 206 217 230 246 260 270 277 281 283 284 287 292 292 292 294 291 290 289 285 284 284 283 280 280 280 277 274 274 273 273 273 270 269 269 270 269 267 266 264 260
197 202 207 219 233 248 262 272 279 282 284 288 292 293 292 295 295 288 285 285 281 282 284 283 280 280 280 277 275 277 277 276 274 272 272 272 272 272 271 269 266 262
198 203 210 221 234 248 262 271 277 281 285 290 292 291 290 291 289 284 282 284 283 283 284 282 279 279 278 276 276 278 278 277 275 273 274 274 273 273 273 272 269 268
200 204 211 220 232 245 259 268 276 282 286 287 286 288 289 288 288 288 287 287 286 284 282 281 279 277 277 277 276 277 278 278 277 276 275 274 273 274 274 273 271 271
200 204 210 217 228 242 255 266 274 280 281 281 282 287 291 292 296 296 291 288 287 284 280 279 278 278 279 278 277 277 277 278 278 277 275 274 273 272 271 271 271 271
197 201 206 211 221 233 247 259 268 273 275 279 285 290 297 300 303 303 298 290 287 283 278 277 278 280 280 279 279 278 278 278 277 275 273 270 268 267 265 264 264 265
195 197 201 205 214 224 238 252 262 270 276 283 291 296 303 306 307 308 304 296 289 284 279 278 280 281 280 280 281 280 279 279 276 272 269 266 263 262 260 258 255 256
191 193 195 200 208 217 233 247 259 270 278 288 297 303 307 309 310 310 307 299 290 283 282 283 282 282 282 283 285 284 282 278 273 269 267 265 264 262 260 258 255 252
188 189 192 198 203 213 229 242 256 269 281 294 304 308 311 312 313 312 306 297 288 285 285 285 283 281 282 284 287 288 285 282 280 277 275 274 274 273 271 269 265 260
184 187 189 193 198 208 223 236 253 268 285 302 309 314 315 314 313 311 302 291 289 292 292 289 286 283 282 285 289 292 292 291 289 287 284 283 283 283 283 281 278 274
183 185 186 190 196 205 218 232 250 267 293 310 313 318 319 317 315 309 299 292 292 296 296 293 291 288 288 292 295 296 296 294 292 291 288 286 284 284 284 283 282 280
182 183 184 189 195 204 216 229 248 272 304 311 313 319 319 316 314 304 297 297 296 297 298 296 295 296 297 298 299 300 300 298 294 292 290 286 285 285 284 284 284 282
182 181 183 189 195 204 213 224 248 278 309 309 312 320 317 312 310 304 301 303 302 302 301 297 300 305 304 304 305 304 303 301 297 293 290 288 287 287 286 284 283 283
182 181 183 189 194 201 209 216 241 287 311 309 311 317 314 310 310 308 309 312 310 308 304 301 305 309 308 307 308 307 306 305 300 294 290 288 288 287 286 284 283 282
181 181 184 187 190 197 204 208 236 299 307 305 311 313 311 312 311 310 314 319 319 315 309 307 310 311 307 308 308 307 308 307 300 292 287 285 285 286 284 283 282 281
182 182 183 184 188 195 195 194 231 294 305 306 315 319 317 317 314 311 313 317 321 320 313 309 313 312 307 308 308 307 308 306 298 292 288 287 288 288 286 284 281 279
183 183 183 184 187 191 188 181 222 299 314 309 321 326 323 320 316 313 315 316 319 321 316 309 310 310 307 306 308 308 308 305 299 294 292 289 289 289 288 286 282 279
182 182 184 185 185 183 178 175 224 305 328 331 337 331 322 323 322 315 315 317 317 319 316 304 302 307 307 305 305 307 308 306 301 296 293 291 290 289 288 285 282 280
181 182 184 185 183 177 169 167 223 356 5 356 347 336 324 324 322 315 316 319 318 316 311 300 296 302 304 302 304 307 309 308 304 297 292 290 290 291 289 286 285 285
180 182 184 183 181 174 160 141 66 34 20 0 347 338 328 322 321 321 319 318 315 310 302 295 294 296 298 300 303 306 308 308 307 303 296 290 290 292 293 293 294 294
Height
789 791 792 793 794 794 795 795 795 794 794 793 792 791 789 787 785 783 782 780 778 776 774 774 773 772 771 770 769 768 766 764 762 761 760 759 758 757 757 756 755 754
787 788 789 790 791 792 792 792 792 791 790 789 788 787 786 784 782 780 779 777 775 773 772 771 770 769 769 768 767 765 763 761 760 758 757 756 755 754 753 752 751 750
784 785 786 787 788 789 789 789 789 788 787 786 785 784 783 781 779 777 776 774 772 771 770 769 768 767 767 765 764 763 761 759 757 756 755 753 752 750 749 748 746 745
781 782 783 784 785 786 787 786 786 785 784 783 782 781 780 778 776 774 773 771 769 768 767 766 766 765 763 762 761 759 757 756 754 753 752 750 749 747 745 744 742 740
777 779 780 781 782 783 783 783 783 782 781 780 779 778 777 775 773 771 770 768 767 766 764 763 763 762 760 759 757 756 754 752 751 750 748 746 745 743 741 740 737 735
774 775 776 777 778 779 779 779 779 779 778 777 776 775 773 771 770 768 767 765 764 762 761 760 759 758 757 755 754 752 750 748 747 746 745 742 741 739 737 735 732 730
771 771 772 774 775 775 775 775 775 775 774 774 772 771 769 768 766 765 763 762 760 759 758 757 756 755 754 752 750 748 746 744 743 742 740 738 736 734 733 731 728 725
767 768 769 770 771 771 771 772 772 771 771 769 768 767 765 764 763 762 760 758 757 755 754 754 752 751 750 749 746 744 742 740 739 737 735 734 732 729 728 726 723 720
763 764 765 766 767 767 767 768 767 767 766 765 764 763 762 761 760 759 757 755 754 752 751 750 749 748 746 745 742 740 738 735 734 733 731 729 727 725 723 722 720 716
759 760 761 762 763 763 763 763 763 762 762 761 760 760 759 758 757 755 754 753 751 750 748 747 745 744 742 740 738 736 733 731 729 728 726 724 723 720 719 718 716 713
754 756 757 758 758 759 759 759 758 758 758 757 757 756 755 754 753 752 751 749 748 746 745 743 741 739 737 735 733 731 728 726 724 722 721 720 718 716 715 714 712 709
750 752 752 753 754 754 754 755 754 754 754 753 753 752 751 750 749 749 747 746 744 743 741 739 737 735 733 730 729 726 724 722 719 718 716 714 712 711 709 707 705 703
746 747 748 749 749 750 751 751 750 750 750 749 749 748 747 746 746 745 744 743 741 740 738 736 733 731 729 727 725 722 720 717 715 713 711 708 706 703 701 699 696 695
743 744 744 745 746 746 747 747 747 747 746 746 745 744 744 743 742 742 741 740 738 737 735 733 730 728 726 723 721 718 716 713 711 709 705 703 700 697 695 692 689 687
739 740 741 742 742 742 743 743 744 743 743 742 741 741 740 740 739 739 738 737 736 734 732 730 727 725 722 720 717 715 713 710 708 705 702 698 695 692 690 687 684 681
736 737 737 738 739 739 740 740 740 740 739 738 738 738 738 737 737 736 736 735 733 731 729 727 724 721 719 717 715 713 711 708 705 702 699 696 692 688 685 682 680 677
732 733 734 735 735 736 736 737 737 736 736 735 735 735 735 735 734 734 733 732 730 728 726 724 721 718 715 714 713 711 708 705 701 698 695 692 689 684 680 677 674 671
729 730 731 731 732 732 733 733 733 733 733 732 732 732 732 732 732 731 730 729 727 725 723 721 717 715 713 711 709 708 706 703 699 695 691 688 684 680 676 672 668 665
726 727 727 728 729 729 729 730 730 730 730 730 730 730 730 729 729 728 727 726 724 722 720 718 715 712 710 709 706 704 702 700 696 692 688 684 680 676 672 668 664 660
723 724 725 725 726 726 727 727 727 727 727 727 727 727 727 727 727 726 724 723 722 720 718 715 712 709 707 706 703 701 698 696 692 688 684 680 676 672 668 664 660 655
721 722 722 722 723 724 724 724 724 725 725 725 725 725 725 725 724 723 722 721 719 717 715 712 709 707 705 702 700 697 694 691 688 683 679 675 670 667 663 658 655 650
718 719 719 720 721 722 722 722 722 723 723 723 723 723 723 723 722 721 720 718 717 715 713 709 706 704 702 699 696 693 690 687 683 679 675 670 665 661 657 653 649 645
716 716 717 718 719 719 719 720 721 721 721 721 721 721 721 721 720 719 718 716 714 713 710 707 703 701 699 696 693 691 687 684 679 674 670 665 659 655 651 647 643 640
713 714 715 716 717 717 717 718 719 720 719 719 719 719 719 718 717 716 715 713 712 710 708 705 701 697 696 693 690 688 685 681 676 670 665 659 654 649 645 640 636 632
711 712 713 714 715 715 716 717 717 718 717 717 717 717 717 717 716 714 712 710 709 706 704 702 698 695 693 691 688 686 683 678 673 667 659 654 649 644 638 634 630 625
709 711 711 712 713 713 715 715 715 716 716 715 716 716 716 715 714 713 710 708 707 704 702 700 697 693 691 688 685 683 680 675 670 664 656 649 644 639 633 628 624 620